EWG96U EDDL-LIMC

Flight info

Callsign EWG96U
Flight time 1h 6m
Altitude 35000
Route DODEN7Z DODEN Y852 TUSUK DCT ULNOK L607 ABUKA DCT KRH DCT NATOR DCT TRA DCT RIPUS DCT GERSA DCT SOSON DCT DEGAD DCT BASGO Z424 RIXUV
Aircraft A320/M-SDE3FGHIRWY/LB1

Departure

Time 2026-05-07 12:42
Airport Düsseldorf Airport (EDDL)

Arrival

Time 2026-05-07 13:49
Airport Milan Malpensa International Airport (LIMC)
Time Latitude Longitude Altitude Speed Heading
2026-05-07 12:26 51.28406 6.77215 130 ft 0 kts 141°
2026-05-07 12:27 51.28407 6.77215 130 ft 0 kts 141°
2026-05-07 12:33 51.28409 6.77217 130 ft 4 kts 114°
2026-05-07 12:34 51.28416 6.77203 125 ft 3 kts 143°
2026-05-07 12:34 51.28438 6.77187 127 ft 4 kts 182°
2026-05-07 12:34 51.28463 6.77198 124 ft 4 kts 213°
2026-05-07 12:34 51.28484 6.77225 126 ft 4 kts 231°
2026-05-07 12:35 51.28487 6.77231 126 ft 0 kts 233°
2026-05-07 12:36 51.28480 6.77216 124 ft 4 kts 233°
2026-05-07 12:37 51.28451 6.77157 127 ft 10 kts 232°
2026-05-07 12:37 51.28394 6.77036 126 ft 17 kts 233°
2026-05-07 12:37 51.28362 6.76879 125 ft 16 kts 310°
2026-05-07 12:37 51.28449 6.76770 126 ft 13 kts 313°
2026-05-07 12:38 51.28426 6.76642 126 ft 13 kts 233°
2026-05-07 12:38 51.28373 6.76532 126 ft 12 kts 233°
2026-05-07 12:38 51.28328 6.76436 126 ft 10 kts 233°
2026-05-07 12:38 51.28271 6.76316 125 ft 17 kts 233°
2026-05-07 12:39 51.28189 6.76145 127 ft 22 kts 232°
2026-05-07 12:39 51.28093 6.75945 128 ft 23 kts 232°
2026-05-07 12:39 51.28023 6.75799 128 ft 13 kts 232°
2026-05-07 12:39 51.27973 6.75693 126 ft 11 kts 233°
2026-05-07 12:40 51.27938 6.75619 129 ft 4 kts 233°
2026-05-07 12:40 51.27928 6.75597 128 ft 2 kts 233°
2026-05-07 12:40 51.27918 6.75577 127 ft 3 kts 233°
2026-05-07 12:40 51.27898 6.75535 128 ft 13 kts 233°
2026-05-07 12:41 51.27840 6.75397 125 ft 14 kts 258°
2026-05-07 12:41 51.27917 6.75289 120 ft 17 kts 333°
2026-05-07 12:41 51.27992 6.75267 118 ft 10 kts 46°
2026-05-07 12:41 51.28120 6.75533 125 ft 64 kts 53°
2026-05-07 12:42 51.28532 6.76398 128 ft 129 kts 52°
2026-05-07 12:42 51.29165 6.77720 355 ft 159 kts 49°
2026-05-07 12:42 51.29846 6.79175 998 ft 167 kts 50°
2026-05-07 12:42 51.30559 6.80687 1589 ft 178 kts 51°
2026-05-07 12:43 51.31351 6.82346 2000 ft 197 kts 51°
2026-05-07 12:43 51.32234 6.84179 2370 ft 222 kts 50°
2026-05-07 12:43 51.33221 6.86228 2922 ft 242 kts 50°
2026-05-07 12:43 51.34254 6.88455 3679 ft 254 kts 53°
2026-05-07 12:44 51.35140 6.90903 4560 ft 262 kts 71°
2026-05-07 12:44 51.35237 6.93829 5475 ft 271 kts 99°
2026-05-07 12:44 51.34846 6.96802 6408 ft 274 kts 99°
2026-05-07 12:44 51.34518 6.99820 7295 ft 277 kts 98°
2026-05-07 12:45 51.34217 7.02878 8220 ft 281 kts 98°
2026-05-07 12:45 51.33920 7.05992 9146 ft 285 kts 98°
2026-05-07 12:45 51.33618 7.09151 10045 ft 290 kts 98°
2026-05-07 12:45 51.33304 7.12363 10869 ft 294 kts 99°
2026-05-07 12:46 51.32833 7.15575 11730 ft 300 kts 110°
2026-05-07 12:46 51.31909 7.18604 12566 ft 307 kts 123°
2026-05-07 12:46 51.30539 7.21273 13414 ft 313 kts 136°
2026-05-07 12:46 51.28973 7.23712 14250 ft 316 kts 136°
2026-05-07 12:47 51.27393 7.26189 14936 ft 320 kts 136°
2026-05-07 12:47 51.25804 7.28692 15334 ft 335 kts 136°
2026-05-07 12:47 51.24093 7.31396 15469 ft 357 kts 136°
2026-05-07 12:47 51.22279 7.34265 15647 ft 376 kts 136°
2026-05-07 12:48 51.20399 7.37233 16111 ft 384 kts 136°
2026-05-07 12:48 51.18485 7.40251 16760 ft 387 kts 136°
2026-05-07 12:48 51.16559 7.43283 17388 ft 391 kts 136°
2026-05-07 12:48 51.14609 7.46337 18042 ft 394 kts 137°
2026-05-07 12:49 51.13304 7.48354 18454 ft 397 kts 137°
2026-05-07 12:49 51.11305 7.51405 19062 ft 399 kts 137°
2026-05-07 12:49 51.09286 7.54464 19658 ft 402 kts 138°
2026-05-07 12:49 51.07254 7.57541 20238 ft 405 kts 137°
2026-05-07 12:50 51.05211 7.60640 20812 ft 407 kts 136°
2026-05-07 12:50 51.03153 7.63769 21368 ft 410 kts 136°
2026-05-07 12:50 51.01082 7.66920 21855 ft 414 kts 137°
2026-05-07 12:50 50.98989 7.70105 22354 ft 418 kts 137°
2026-05-07 12:51 50.96838 7.73226 22877 ft 420 kts 142°
2026-05-07 12:51 50.94429 7.75854 23329 ft 423 kts 149°
2026-05-07 12:51 50.91915 7.78318 23749 ft 426 kts 149°
2026-05-07 12:51 50.89389 7.80803 24141 ft 429 kts 149°
2026-05-07 12:52 50.86844 7.83308 24527 ft 431 kts 149°
2026-05-07 12:52 50.84291 7.85818 24908 ft 433 kts 149°
2026-05-07 12:52 50.81727 7.88340 25298 ft 435 kts 149°
2026-05-07 12:52 50.79144 7.90878 25665 ft 438 kts 149°
2026-05-07 12:53 50.76551 7.93416 26031 ft 439 kts 149°
2026-05-07 12:53 50.73977 7.95929 26393 ft 441 kts 149°
2026-05-07 12:53 50.71361 7.98482 26749 ft 443 kts 149°
2026-05-07 12:53 50.68732 8.01044 27101 ft 445 kts 149°
2026-05-07 12:54 50.66084 8.03621 27445 ft 447 kts 149°
2026-05-07 12:54 50.63412 8.06153 27778 ft 449 kts 152°
2026-05-07 12:54 50.60568 8.08164 28098 ft 450 kts 161°
2026-05-07 12:54 50.57541 8.09490 28367 ft 451 kts 170°
2026-05-07 12:55 50.54425 8.10097 28645 ft 452 kts 176°
2026-05-07 12:55 50.51278 8.10488 28917 ft 454 kts 176°
2026-05-07 12:55 50.48121 8.10895 29208 ft 456 kts 176°
2026-05-07 12:55 50.44956 8.11314 29451 ft 458 kts 176°
2026-05-07 12:56 50.41778 8.11736 29694 ft 459 kts 176°
2026-05-07 12:56 50.38591 8.12155 30003 ft 459 kts 176°
2026-05-07 12:56 50.35412 8.12572 30311 ft 458 kts 176°
2026-05-07 12:56 50.32236 8.12989 30575 ft 458 kts 176°
2026-05-07 12:57 50.29099 8.13398 30840 ft 458 kts 176°
2026-05-07 12:57 50.25921 8.13810 31096 ft 458 kts 177°
2026-05-07 12:57 50.22748 8.14220 31358 ft 458 kts 176°
2026-05-07 12:57 50.19568 8.14630 31631 ft 458 kts 176°
2026-05-07 12:58 50.16401 8.15180 31914 ft 459 kts 171°
2026-05-07 12:58 50.13313 8.16430 32195 ft 459 kts 161°
2026-05-07 12:58 50.10382 8.18414 32503 ft 460 kts 153°
2026-05-07 12:58 50.07621 8.20940 32763 ft 460 kts 150°
2026-05-07 12:59 50.04874 8.23496 33029 ft 460 kts 150°
2026-05-07 12:59 50.02121 8.26040 33320 ft 460 kts 150°
2026-05-07 12:59 49.99405 8.28539 33610 ft 459 kts 150°
2026-05-07 12:59 49.96620 8.31100 33905 ft 459 kts 150°
2026-05-07 13:00 49.93907 8.33597 34156 ft 459 kts 150°
2026-05-07 13:00 49.91155 8.36128 34385 ft 459 kts 150°
2026-05-07 13:00 49.88409 8.38649 34617 ft 459 kts 150°
2026-05-07 13:00 49.85689 8.41239 34837 ft 460 kts 146°
2026-05-07 13:01 49.83190 8.44340 34985 ft 461 kts 138°
2026-05-07 13:01 49.80846 8.47756 35033 ft 462 kts 137°
2026-05-07 13:01 49.76171 8.54571 35037 ft 462 kts 138°
2026-05-07 13:02 49.70891 8.60107 35042 ft 458 kts 157°
2026-05-07 13:02 49.64809 8.62851 35045 ft 455 kts 171°
2026-05-07 13:03 49.58614 8.64560 35052 ft 456 kts 171°
2026-05-07 13:03 49.52368 8.66286 35055 ft 456 kts 171°
2026-05-07 13:04 49.46098 8.67545 35056 ft 453 kts 182°
2026-05-07 13:04 49.39859 8.66564 35044 ft 451 kts 189°
2026-05-07 13:05 49.33635 8.65292 35042 ft 451 kts 189°
2026-05-07 13:05 49.27409 8.64044 35039 ft 451 kts 189°
2026-05-07 13:06 49.21177 8.62798 35025 ft 451 kts 189°
2026-05-07 13:06 49.14958 8.61553 35021 ft 451 kts 189°
2026-05-07 13:07 49.08733 8.60309 35022 ft 451 kts 189°
2026-05-07 13:07 49.02508 8.59066 35025 ft 451 kts 189°
2026-05-07 13:08 48.96350 8.57684 35015 ft 450 kts 192°
2026-05-07 13:08 48.90238 8.55707 35021 ft 449 kts 195°
2026-05-07 13:09 48.84152 8.53546 35025 ft 449 kts 195°
2026-05-07 13:09 48.78056 8.51495 35025 ft 449 kts 194°
2026-05-07 13:10 48.71948 8.49555 35016 ft 448 kts 194°
2026-05-07 13:10 48.65840 8.47632 35019 ft 448 kts 194°
2026-05-07 13:11 48.59739 8.45684 35022 ft 448 kts 194°
2026-05-07 13:11 48.53642 8.43737 35025 ft 448 kts 194°
2026-05-07 13:12 48.47536 8.41783 35029 ft 448 kts 194°
2026-05-07 13:12 48.41438 8.39839 35032 ft 448 kts 194°
2026-05-07 13:13 48.35334 8.37913 35034 ft 448 kts 194°
2026-05-07 13:13 48.29276 8.35992 35033 ft 448 kts 194°
2026-05-07 13:14 48.23168 8.34059 35039 ft 448 kts 194°
2026-05-07 13:14 48.16999 8.32622 35045 ft 452 kts 183°
2026-05-07 13:15 48.10726 8.33641 35037 ft 455 kts 173°
2026-05-07 13:15 48.04462 8.35172 35041 ft 456 kts 173°
2026-05-07 13:16 47.98203 8.36674 35043 ft 456 kts 173°
2026-05-07 13:16 47.91944 8.38170 35045 ft 456 kts 173°
2026-05-07 13:17 47.85681 8.39675 35036 ft 456 kts 174°
2026-05-07 13:17 47.79412 8.41182 35045 ft 457 kts 174°
2026-05-07 13:18 47.73175 8.42671 35049 ft 457 kts 174°
2026-05-07 13:18 47.66904 8.44116 35048 ft 455 kts 175°
2026-05-07 13:19 47.60625 8.45118 35049 ft 453 kts 178°
2026-05-07 13:19 47.54342 8.45896 35049 ft 453 kts 178°
2026-05-07 13:20 47.48062 8.46733 35034 ft 453 kts 178°
2026-05-07 13:20 47.41772 8.47666 35041 ft 454 kts 178°
2026-05-07 13:21 47.35489 8.48613 35045 ft 454 kts 178°
2026-05-07 13:21 47.29198 8.49544 35045 ft 454 kts 178°
2026-05-07 13:22 47.22914 8.50454 35032 ft 454 kts 178°
2026-05-07 13:22 47.16630 8.51362 35033 ft 454 kts 178°
2026-05-07 13:23 47.10333 8.52283 35033 ft 455 kts 178°
2026-05-07 13:23 47.04079 8.53189 35022 ft 455 kts 178°
2026-05-07 13:24 46.97775 8.54098 35025 ft 455 kts 178°
2026-05-07 13:24 46.91484 8.55010 35032 ft 455 kts 178°
2026-05-07 13:25 46.85185 8.55909 35011 ft 454 kts 178°
2026-05-07 13:25 46.78899 8.56806 35004 ft 453 kts 179°
2026-05-07 13:26 46.72610 8.57713 35015 ft 454 kts 178°
2026-05-07 13:26 46.66332 8.58612 34960 ft 453 kts 179°
2026-05-07 13:27 46.63198 8.59057 34691 ft 453 kts 179°
2026-05-07 13:27 46.60062 8.59501 34206 ft 453 kts 179°
2026-05-07 13:27 46.56907 8.59944 33152 ft 457 kts 179°
2026-05-07 13:27 46.53727 8.60389 32121 ft 459 kts 179°
2026-05-07 13:28 46.50576 8.60833 31061 ft 462 kts 178°
2026-05-07 13:28 46.47379 8.60975 29997 ft 460 kts 186°
2026-05-07 13:28 46.44211 8.60384 28680 ft 459 kts 195°
2026-05-07 13:28 46.41129 8.59043 27464 ft 454 kts 204°
2026-05-07 13:29 46.38357 8.57083 26746 ft 443 kts 213°
2026-05-07 13:29 46.35718 8.54733 25965 ft 437 kts 214°
2026-05-07 13:29 46.33181 8.52466 25219 ft 433 kts 213°
2026-05-07 13:29 46.30584 8.50309 24476 ft 430 kts 207°
2026-05-07 13:30 46.27785 8.48790 23737 ft 429 kts 197°
2026-05-07 13:30 46.24852 8.48013 22894 ft 429 kts 187°
2026-05-07 13:30 46.21870 8.47995 22052 ft 429 kts 177°
2026-05-07 13:30 46.18902 8.48426 21291 ft 427 kts 176°
2026-05-07 13:31 46.16005 8.48851 21150 ft 410 kts 176°
2026-05-07 13:31 46.13215 8.49258 20955 ft 397 kts 176°
2026-05-07 13:31 46.10515 8.49938 20541 ft 392 kts 167°
2026-05-07 13:31 46.07948 8.51153 19819 ft 387 kts 161°
2026-05-07 13:32 46.05438 8.52499 19036 ft 383 kts 161°
2026-05-07 13:32 46.02948 8.53847 18269 ft 381 kts 161°
2026-05-07 13:32 46.00528 8.55162 18034 ft 360 kts 161°
2026-05-07 13:32 45.98263 8.56396 17808 ft 338 kts 161°
2026-05-07 13:33 45.96101 8.57571 17260 ft 329 kts 161°
2026-05-07 13:33 45.93974 8.58715 16613 ft 324 kts 162°
2026-05-07 13:33 45.91876 8.59835 15966 ft 320 kts 161°
2026-05-07 13:33 45.89850 8.61115 15330 ft 318 kts 152°
2026-05-07 13:34 45.88044 8.62942 14774 ft 318 kts 142°
2026-05-07 13:34 45.84658 8.66909 14166 ft 314 kts 142°
2026-05-07 13:34 45.82960 8.68875 13822 ft 313 kts 143°
2026-05-07 13:35 45.81264 8.70826 13436 ft 313 kts 143°
2026-05-07 13:35 45.79572 8.72771 13080 ft 311 kts 143°
2026-05-07 13:35 45.77893 8.74705 12736 ft 309 kts 143°
2026-05-07 13:35 45.76189 8.76557 12399 ft 306 kts 150°
2026-05-07 13:36 45.74337 8.78019 12063 ft 303 kts 153°
2026-05-07 13:36 45.72481 8.79442 11727 ft 301 kts 153°
2026-05-07 13:36 45.70639 8.80855 11375 ft 300 kts 153°
2026-05-07 13:36 45.68806 8.82264 11047 ft 298 kts 153°
2026-05-07 13:37 45.66986 8.83664 10698 ft 296 kts 153°
2026-05-07 13:37 45.65185 8.85049 10483 ft 289 kts 153°
2026-05-07 13:37 45.63442 8.86388 10352 ft 279 kts 153°
2026-05-07 13:37 45.61722 8.87582 10161 ft 271 kts 162°
2026-05-07 13:38 45.59906 8.88209 9867 ft 267 kts 171°
2026-05-07 13:38 45.58104 8.88694 9516 ft 266 kts 171°
2026-05-07 13:38 45.56294 8.89182 9258 ft 263 kts 171°
2026-05-07 13:38 45.54519 8.89662 9060 ft 256 kts 170°
2026-05-07 13:39 45.52782 8.90133 8989 ft 253 kts 170°
2026-05-07 13:39 45.51053 8.90602 8975 ft 252 kts 170°
2026-05-07 13:39 45.49372 8.91058 8916 ft 240 kts 170°
2026-05-07 13:39 45.47707 8.91511 8386 ft 247 kts 170°
2026-05-07 13:40 45.46019 8.91969 7886 ft 246 kts 170°
2026-05-07 13:40 45.44883 8.92278 7502 ft 245 kts 170°
2026-05-07 13:40 45.43234 8.92727 6974 ft 244 kts 169°
2026-05-07 13:40 45.41577 8.93176 6451 ft 241 kts 169°
2026-05-07 13:41 45.39934 8.93620 5899 ft 239 kts 170°
2026-05-07 13:41 45.38298 8.93809 5338 ft 235 kts 191°
2026-05-07 13:41 45.36846 8.92826 4944 ft 233 kts 224°
2026-05-07 13:41 45.36012 8.90928 4683 ft 226 kts 254°
2026-05-07 13:42 45.35713 8.88769 4439 ft 221 kts 262°
2026-05-07 13:42 45.35527 8.86612 4188 ft 218 kts 263°
2026-05-07 13:42 45.35474 8.84500 4015 ft 210 kts 279°
2026-05-07 13:42 45.35939 8.82595 4001 ft 203 kts 301°
2026-05-07 13:43 45.36863 8.81104 4005 ft 202 kts 323°
2026-05-07 13:43 45.38113 8.80211 4005 ft 203 kts 346°
2026-05-07 13:43 45.39497 8.79814 4010 ft 203 kts 349°
2026-05-07 13:43 45.40886 8.79437 4008 ft 203 kts 349°
2026-05-07 13:44 45.42248 8.79065 4030 ft 193 kts 349°
2026-05-07 13:44 45.43525 8.78715 3985 ft 183 kts 349°
2026-05-07 13:44 45.44778 8.78371 3941 ft 183 kts 349°
2026-05-07 13:44 45.46026 8.78029 3768 ft 182 kts 349°
2026-05-07 13:45 45.47252 8.77692 3550 ft 177 kts 349°
2026-05-07 13:45 45.48452 8.77363 3326 ft 174 kts 349°
2026-05-07 13:45 45.49613 8.77044 3109 ft 171 kts 349°
2026-05-07 13:45 45.50771 8.76727 2869 ft 168 kts 349°
2026-05-07 13:46 45.51909 8.76418 2643 ft 164 kts 349°
2026-05-07 13:46 45.52967 8.76126 2446 ft 148 kts 349°
2026-05-07 13:46 45.53953 8.75851 2214 ft 141 kts 349°
2026-05-07 13:46 45.54898 8.75589 2006 ft 138 kts 349°
2026-05-07 13:47 45.55849 8.75328 1846 ft 139 kts 349°
2026-05-07 13:47 45.56801 8.75063 1723 ft 140 kts 349°
2026-05-07 13:47 45.57761 8.74800 1546 ft 142 kts 349°
2026-05-07 13:47 45.58744 8.74526 1365 ft 145 kts 348°
2026-05-07 13:48 45.59749 8.74248 1156 ft 148 kts 349°
2026-05-07 13:48 45.60751 8.73975 940 ft 149 kts 348°
2026-05-07 13:48 45.61778 8.73692 755 ft 148 kts 348°
2026-05-07 13:48 45.62675 8.73443 742 ft 103 kts 349°
2026-05-07 13:49 45.63086 8.73319 737 ft 33 kts 333°
2026-05-07 13:49 45.63241 8.73108 739 ft 30 kts 307°
2026-05-07 13:49 45.63350 8.72880 741 ft 19 kts 304°
2026-05-07 13:49 45.63391 8.72713 741 ft 19 kts 256°
2026-05-07 13:50 45.63294 8.72580 741 ft 21 kts 214°
2026-05-07 13:50 45.63170 8.72461 742 ft 22 kts 214°
2026-05-07 13:50 45.63066 8.72350 743 ft 16 kts 227°
2026-05-07 13:50 45.63023 8.72189 742 ft 19 kts 258°
2026-05-07 13:51 45.62996 8.71987 740 ft 22 kts 259°
2026-05-07 13:51 45.62967 8.71780 740 ft 14 kts 246°
2026-05-07 13:51 45.62868 8.71769 741 ft 16 kts 169°
2026-05-07 13:51 45.62750 8.71802 739 ft 18 kts 169°
2026-05-07 13:52 45.62616 8.71839 741 ft 21 kts 169°
2026-05-07 13:52 45.62522 8.71854 741 ft 6 kts 218°
2026-05-07 13:52 45.62513 8.71808 741 ft 4 kts 258°
2026-05-07 13:52 45.62508 8.71770 741 ft 3 kts 259°
2026-05-07 13:53 45.62505 8.71750 741 ft 0 kts 259°